Location: Newark
(55.7167°N, 12.5667°E)
Time: 20:53:13
(UTC+00:00)

N. Korean satellite - Visible Passes

Search period start: 10 December 2019 00:00
Search period end: 20 December 2019 00:00
Orbit: 456 x 506 km, 97.2° (Epoch: 09 December)

Date Brightness Start Highest point End Pass type
(mag) Time Alt. Az. Time Alt. Az. Time Alt. Az.
10 Dec 7.3 04:59:25 10° NNE 05:02:57 52° E 05:06:23 10° S visible
10 Dec 7.9 06:33:25 10° NNW 06:36:03 19° WNW 06:38:38 10° WSW visible
10 Dec 6.6 15:41:34 10° SSE 15:45:15 65° ENE 15:48:55 10° N visible
10 Dec 9.8 17:16:40 10° SW 17:19:01 16° W 17:21:23 10° NW visible
11 Dec 8.6 04:34:13 10° NNE 04:37:23 29° E 04:40:29 10° SSE visible
11 Dec 7.3 06:07:36 10° N 06:10:48 31° WNW 06:13:56 10° SW visible
11 Dec 7.2 15:16:28 10° SE 15:19:53 37° ENE 15:23:18 10° N visible
11 Dec 9.0 16:50:11 10° SSW 16:53:22 27° W 16:56:33 10° NW visible
12 Dec 9.5 04:09:19 10° NE 04:11:43 17° E 04:14:05 10° SE visible
12 Dec 6.6 05:41:58 10° N 05:45:27 54° WNW 05:48:53 10° SSW visible
12 Dec 7.8 16:24:13 10° S 16:27:48 46° W 16:31:22 10° NNW visible
13 Dec 6.5 05:16:28 10° NNE 05:20:02 81° ESE 05:23:32 10° SSW visible
13 Dec 6.7 15:58:36 10° SSE 16:02:19 85° WSW 16:06:00 10° NNW visible
13 Dec 10.1 17:35:13 10° WSW 17:36:18 11° W 17:37:23 10° WNW visible
14 Dec 7.7 04:51:08 10° NNE 04:54:32 43° E 04:57:52 10° S visible
14 Dec 7.7 06:24:56 10° N 06:27:43 22° WNW 06:30:30 10° WSW visible
14 Dec 6.7 15:33:18 10° SSE 15:36:54 53° ENE 15:40:29 10° N visible
14 Dec 9.6 17:07:55 10° SW 17:10:35 19° W 17:13:14 10° NW visible
15 Dec 8.9 04:26:00 10° NE 04:28:55 24° E 04:31:49 10° SSE visible
15 Dec 7.0 05:59:09 10° N 06:02:27 36° WNW 06:05:40 10° SW visible
15 Dec 8.6 16:41:38 10° SSW 16:44:57 31° W 16:48:15 10° NNW visible
16 Dec 9.8 04:01:18 10° NE 04:03:15 14° E 04:05:10 10° ESE visible
16 Dec 6.4 05:33:33 10° N 05:37:05 66° WNW 05:40:31 10° SSW visible
16 Dec 7.4 16:15:47 10° S 16:19:24 56° W 16:23:00 10° NNW visible
17 Dec 6.8 05:08:06 10° NNE 05:11:38 66° ESE 05:15:04 10° S visible
17 Dec 8.1 06:42:23 10° NNW 06:44:37 16° WNW 06:46:50 10° W visible
17 Dec 6.5 15:50:16 10° SSE 15:53:56 80° ENE 15:57:35 10° NNW visible
17 Dec 10.0 17:26:04 10° WSW 17:27:49 13° W 17:29:34 10° WNW visible
18 Dec 8.1 04:42:49 10° NNE 04:46:05 35° E 04:49:17 10° SSE visible
18 Dec 7.5 06:16:26 10° N 06:19:23 25° WNW 06:22:18 10° WSW visible
18 Dec 6.9 15:25:03 10° SE 15:28:32 44° ENE 15:32:00 10° N visible
18 Dec 9.3 16:59:14 10° SW 17:02:08 22° W 17:05:01 10° NW visible
19 Dec 9.2 04:17:47 10° NE 04:20:26 20° E 04:23:04 10° SE visible
19 Dec 6.8 05:50:42 10° N 05:54:04 43° WNW 05:57:22 10° SW visible
19 Dec 8.2 16:33:06 10° SSW 16:36:31 37° W 16:39:55 10° NNW visible
